Wind_Speed
68 68 68 66 64 61 58 56 56 55 53 52 50 48 45 39 34 31 31 33 34 35 36 36 35 34 35 38 40 41 40 39 39 37 36 34 33 31 28 24 21 21 23 25 23 21 21 21 21 22 19 17 17 18 19 20 20 20 21 22 23 24 24 22 23 24 23 22 22 23 24 24 25 25 25 25 25 23 20 18 18 20 20 19 19 17
67 68 67 65 62 58 56 54 54 54 52 51 49 47 45 40 35 32 31 33 34 35 34 34 34 32 34 36 39 41 41 40 40 38 37 36 35 33 29 26 25 25 27 26 23 23 23 23 22 22 19 17 18 19 19 20 21 21 21 23 23 24 23 22 24 26 23 20 21 23 23 24 25 25 25 25 24 22 21 20 20 21 20 20 19 17
67 68 66 65 62 58 56 54 53 53 51 50 49 46 44 41 37 34 33 34 34 34 33 33 31 29 31 35 37 40 40 39 39 39 39 39 37 34 31 29 28 29 28 26 25 26 26 24 23 22 19 19 19 19 20 20 21 21 23 23 24 24 22 22 25 25 23 20 22 23 22 22 25 25 25 24 24 23 22 21 21 21 21 20 18 16
67 68 66 64 63 60 58 56 55 54 52 50 48 47 45 42 39 36 35 35 35 33 33 32 30 28 31 34 36 38 38 38 39 41 41 40 38 35 33 32 32 31 29 27 27 27 27 25 23 21 20 20 20 20 20 20 21 23 25 26 26 26 24 24 25 24 23 23 24 23 21 22 24 24 25 25 25 25 23 22 23 22 21 19 17 16
65 67 65 64 63 61 59 57 56 54 52 51 49 47 45 42 40 37 36 36 35 34 33 32 30 30 31 32 32 33 34 36 38 40 41 39 37 35 34 33 33 32 30 28 28 28 27 25 22 21 22 22 21 20 21 21 22 23 24 26 26 25 24 25 25 24 23 23 23 23 23 24 24 25 26 28 27 25 23 23 23 21 20 18 16 15
64 64 63 62 62 61 59 57 56 54 51 50 49 47 44 42 41 39 37 37 36 35 34 33 32 30 30 29 27 27 27 29 33 37 38 37 36 36 35 34 33 32 30 29 28 27 26 24 22 23 23 22 21 22 23 22 22 22 21 23 25 24 24 24 25 25 24 23 23 24 25 25 25 26 28 28 27 24 23 22 21 20 19 17 16 15
63 63 62 62 61 60 59 58 56 53 51 50 48 46 44 43 42 41 39 38 37 36 34 34 33 30 28 27 25 25 25 25 29 32 34 35 37 37 36 35 34 33 31 29 28 27 25 23 23 23 23 23 24 25 24 22 22 23 21 22 23 23 22 23 24 25 24 23 23 24 26 24 25 27 27 26 25 22 21 20 19 19 19 17 16 16
63 63 62 62 61 60 59 57 55 53 51 49 47 44 43 42 43 42 41 39 38 37 36 35 34 32 30 29 28 27 26 26 26 24 24 26 29 33 35 35 34 32 30 29 28 27 26 25 25 24 24 26 27 25 24 23 22 22 22 22 23 23 22 22 24 24 23 24 23 23 24 24 26 28 27 26 24 23 22 20 19 20 18 17 16 17
62 62 61 61 61 60 59 56 53 52 50 48 45 42 41 42 43 43 43 42 40 38 38 38 37 35 33 31 30 30 29 26 21 15 14 16 19 25 30 32 32 30 29 28 28 28 27 27 27 27 27 28 28 26 25 23 22 22 22 23 25 25 24 24 25 24 24 25 25 22 23 24 26 27 27 27 25 24 23 21 21 21 18 17 17 17
62 62 60 60 61 60 58 55 52 51 49 46 43 41 40 42 44 45 45 44 42 41 41 40 39 38 35 33 33 33 29 21 15 12 13 13 16 20 24 27 28 27 27 27 28 28 28 29 29 29 28 28 28 27 25 23 22 22 22 24 27 26 25 24 24 24 24 25 25 23 23 24 25 25 26 26 24 23 22 22 23 21 18 17 17 17
61 60 60 60 60 59 56 54 51 50 47 44 43 42 41 43 45 46 47 46 46 46 44 42 42 40 38 36 35 33 25 18 16 16 14 13 13 14 18 22 23 24 25 25 26 27 28 30 30 29 29 29 29 27 25 24 23 23 25 28 28 24 22 21 22 23 23 24 25 23 23 23 23 23 24 24 23 21 21 22 21 19 18 17 17 17
61 60 60 60 59 58 56 53 51 50 47 44 43 43 43 44 46 47 48 48 49 50 47 44 43 42 42 39 35 32 25 21 21 18 14 12 12 13 15 18 19 20 22 22 24 25 28 30 29 29 29 30 30 28 25 24 23 25 28 27 23 21 21 20 20 22 23 24 24 22 22 22 21 22 23 22 21 20 21 21 17 17 18 18 18 18
61 60 59 59 59 58 56 54 52 50 48 46 46 46 45 46 48 49 50 51 52 52 48 46 46 46 45 39 34 32 27 24 22 18 16 15 15 16 17 18 19 19 20 21 23 26 28 30 30 31 31 31 30 28 25 24 24 28 28 23 20 21 23 22 21 23 24 25 23 21 21 21 21 22 22 21 21 20 21 19 16 17 19 19 19 18
61 61 60 60 59 58 56 55 54 52 50 49 49 49 49 49 50 51 51 52 54 53 48 47 48 48 46 39 33 31 27 25 23 20 19 18 17 16 15 15 17 18 20 22 25 28 30 31 32 32 31 31 30 28 26 25 26 28 25 20 21 24 25 23 24 25 25 24 23 21 21 20 20 21 20 21 22 22 21 19 16 19 20 18 17 16
61 62 61 60 59 58 56 54 52 49 48 49 49 49 49 49 49 49 50 51 53 52 49 49 49 50 46 37 32 31 29 27 25 22 21 20 17 14 12 14 16 17 19 22 26 29 31 32 33 32 31 30 29 28 26 25 27 28 26 22 23 25 25 24 26 26 24 23 22 20 20 19 19 19 20 21 23 22 20 18 18 20 20 18 16 16
59 60 60 59 57 56 55 54 51 48 47 47 48 48 48 47 46 46 46 48 49 48 46 48 49 49 44 34 31 33 31 28 27 25 24 20 17 14 14 16 18 17 18 21 26 29 31 32 32 30 29 28 29 28 26 27 28 29 28 25 23 24 23 24 28 28 23 22 22 20 20 19 19 18 19 21 22 21 18 17 19 21 20 19 17 16
58 58 58 57 56 55 54 53 51 49 48 48 48 49 48 46 45 45 45 45 45 44 43 46 47 46 41 33 32 33 31 29 28 26 24 20 17 15 16 18 20 19 18 20 25 29 30 30 28 27 26 27 28 27 26 28 29 29 29 26 24 23 23 25 27 25 22 22 23 21 19 19 19 18 18 20 21 18 16 17 20 21 20 20 19 18
55 56 57 56 55 54 53 51 50 49 49 49 49 49 47 46 46 45 45 45 45 43 42 44 45 43 40 33 31 32 31 30 28 26 23 20 16 15 16 19 21 21 19 19 22 25 26 25 24 24 25 26 26 25 26 29 30 28 28 27 25 23 23 26 26 23 23 24 22 20 19 19 19 18 19 20 19 16 16 18 21 21 21 22 21 18
53 53 55 55 52 52 52 52 51 51 50 49 49 47 46 47 48 47 46 46 45 42 42 43 43 42 38 30 28 31 31 29 28 25 21 18 15 13 15 20 23 23 21 19 19 21 22 23 23 23 24 25 24 24 26 29 29 27 27 27 24 21 20 23 24 23 24 24 22 20 20 20 18 18 19 19 18 17 17 19 21 22 22 22 21 18
51 50 53 54 51 50 51 52 53 53 52 51 50 48 47 47 47 47 47 45 43 41 40 41 40 40 35 27 26 30 30 28 27 23 20 18 16 15 16 19 22 22 21 19 19 20 22 22 23 23 24 24 23 23 24 25 26 25 24 24 22 18 18 20 21 21 21 22 22 21 20 20 19 18 19 18 17 17 18 19 21 21 22 22 20 19
50 50 51 52 51 51 52 53 52 53 53 53 53 52 50 48 46 45 45 43 40 39 39 39 39 37 30 24 25 29 29 28 26 23 22 20 18 17 17 18 19 19 19 19 20 21 22 22 23 23 24 23 22 21 20 20 23 22 22 23 21 18 18 19 20 19 19 20 21 21 20 19 18 19 18 17 17 17 18 20 21 21 21 21 20 19
49 49 49 50 52 52 52 51 50 50 50 50 51 52 52 50 47 46 45 43 40 38 38 38 37 33 26 23 25 28 29 28 26 25 24 22 20 19 19 18 17 17 18 19 21 21 20 19 20 21 21 20 20 19 17 18 20 20 21 23 22 19 18 18 19 19 19 19 20 20 20 19 19 19 18 17 18 18 19 20 21 21 21 21 20 19
47 48 47 49 50 50 50 48 47 48 48 48 48 48 49 49 47 46 45 43 40 38 37 37 36 30 24 23 26 28 28 27 26 26 25 23 22 22 21 19 17 16 16 17 18 17 16 16 16 16 16 16 16 16 16 17 18 19 21 23 23 21 19 19 18 18 18 19 19 20 20 19 19 18 17 17 18 19 21 21 21 22 22 21 21 19
45 46 47 46 46 45 46 46 47 48 48 49 48 47 47 46 45 43 40 37 37 37 36 35 33 28 24 23 25 27 27 26 26 26 25 24 23 23 22 21 18 16 14 15 15 15 14 13 14 14 13 13 13 13 15 16 17 18 20 21 22 21 20 20 19 18 18 19 19 20 21 21 20 18 16 17 18 20 22 21 21 22 22 22 21 19
42 44 45 45 45 45 45 47 50 51 51 51 49 48 47 45 42 40 37 35 35 35 35 34 30 26 24 23 24 26 26 26 26 25 24 24 23 23 22 21 20 16 14 14 15 15 13 13 13 13 13 12 12 12 15 16 17 17 18 19 20 20 19 19 20 20 20 20 20 21 21 21 20 17 16 17 19 21 22 21 21 22 22 22 21 19
39 41 43 43 47 50 50 51 52 53 53 51 49 47 47 45 42 40 38 37 36 35 35 33 27 24 24 24 24 25 26 27 27 25 23 23 24 24 22 21 20 17 14 14 14 14 15 15 15 13 12 12 13 13 15 17 17 18 18 18 18 18 17 18 20 20 21 21 21 21 20 20 18 16 16 17 19 21 22 21 22 23 24 23 21 20
38 40 41 42 45 47 49 50 51 51 52 52 51 49 46 45 43 42 40 39 36 35 34 31 26 24 24 25 25 25 25 27 27 25 24 24 24 23 22 21 20 19 18 16 15 16 17 18 18 17 14 13 14 15 16 18 18 18 18 18 17 17 17 18 19 20 21 21 21 21 21 20 18 16 16 17 20 22 22 22 23 24 24 23 22 21
39 39 41 42 42 42 44 46 48 49 50 50 50 50 48 46 44 43 42 39 36 35 33 29 27 25 23 24 25 25 25 25 25 24 24 24 23 21 21 20 20 20 19 19 20 21 21 20 21 21 18 15 15 16 17 18 19 19 18 18 18 18 18 18 19 20 21 21 21 22 21 20 19 17 17 18 21 23 23 23 24 25 25 24 23 21
37 38 40 41 41 42 43 44 45 47 48 48 48 48 47 46 45 44 42 39 37 35 31 29 28 26 23 23 25 25 24 23 22 23 23 22 20 20 19 19 18 19 19 21 21 22 24 23 21 20 19 17 17 18 19 19 19 19 18 18 18 19 19 20 20 21 22 22 22 22 22 21 19 18 18 19 21 23 23 23 24 25 25 24 23 22
35 37 39 40 41 44 45 44 44 45 47 47 47 46 44 44 43 42 40 39 38 34 31 30 29 28 26 25 25 25 25 24 23 24 23 21 20 19 19 18 18 19 20 21 21 22 24 24 21 20 18 17 18 20 20 20 20 19 19 19 20 21 22 22 22 24 25 25 24 24 23 22 21 19 18 19 21 23 24 24 25 26 25 25 24 23
34 35 38 39 40 43 44 43 43 44 45 45 45 44 44 42 42 41 39 39 37 34 32 31 29 28 28 27 25 24 25 25 25 25 24 22 21 21 21 20 20 21 22 22 21 22 22 22 21 20 18 18 19 21 21 21 22 22 22 21 22 23 24 25 25 25 27 27 27 26 25 24 23 22 20 21 22 23 24 25 26 26 26 25 25 24
34 35 38 39 40 41 41 40 40 41 42 43 43 44 44 43 42 40 38 37 36 33 31 30 28 26 26 26 25 24 25 25 25 25 24 23 23 23 23 23 23 23 24 23 22 21 20 20 19 19 19 20 21 23 23 24 24 25 25 25 26 27 27 27 27 26 28 29 28 27 27 26 26 24 23 24 24 24 26 27 27 27 27 26 26 25
32 35 38 38 39 39 39 38 37 38 41 44 44 42 42 41 39 38 37 36 34 33 31 28 26 24 24 24 24 24 25 25 26 25 25 24 25 26 25 24 24 25 24 24 23 21 20 20 18 17 18 19 21 23 25 26 27 29 29 30 31 32 31 30 30 28 27 28 29 28 29 29 29 27 26 27 26 26 27 28 28 28 28 27 27 26
32 35 38 39 39 38 37 36 36 39 42 44 42 39 37 36 36 35 34 33 32 31 30 27 25 24 24 23 22 22 23 23 25 26 26 27 28 29 27 26 26 26 26 24 22 20 20 20 18 16 17 17 19 21 23 24 26 28 30 31 33 33 31 31 31 29 28 29 30 30 30 30 30 29 29 29 28 27 28 30 30 30 28 28 27 26
32 35 37 38 39 38 36 36 38 39 40 39 37 37 35 34 33 31 30 30 29 28 27 26 25 25 24 22 22 21 20 20 22 24 25 28 31 31 30 29 28 27 25 21 19 19 20 19 18 18 18 18 18 19 20 22 24 26 29 31 33 31 29 30 32 31 30 30 30 30 30 31 32 31 31 30 28 28 30 32 31 30 28 27 26 25
31 34 36 36 37 38 37 38 38 37 36 36 36 36 35 34 34 33 31 30 29 28 26 26 27 26 24 23 22 22 20 19 20 22 24 27 29 29 28 26 23 20 18 16 15 16 16 16 17 18 19 20 20 21 22 23 25 28 29 30 30 29 28 31 33 32 30 30 30 31 32 33 33 32 31 29 29 30 32 32 31 29 28 27 26 26
29 33 35 35 36 37 37 36 34 33 34 35 36 35 35 35 34 33 32 30 30 28 27 27 27 27 25 24 23 23 20 18 19 22 24 25 25 24 21 18 16 15 14 14 15 14 13 14 16 18 20 21 22 23 24 24 26 29 29 29 28 27 26 30 33 32 30 30 31 33 34 35 34 32 30 30 31 33 34 33 32 30 28 27 26 26
28 31 34 34 35 36 36 35 33 32 33 35 35 35 34 33 32 31 29 29 29 28 27 28 28 27 26 26 26 24 20 17 17 21 23 23 21 18 16 16 16 16 16 16 16 15 14 15 16 18 19 21 22 23 25 26 28 29 29 27 26 26 26 29 32 33 33 33 34 35 36 35 33 32 32 33 34 34 35 34 32 29 29 29 28 27
28 31 31 32 33 34 34 33 33 32 32 32 33 33 32 32 31 30 29 28 28 27 26 28 30 30 29 28 28 25 21 17 17 20 22 23 21 20 20 21 21 19 18 19 18 17 16 16 18 20 21 22 23 24 26 27 29 30 29 26 24 24 26 30 33 36 37 37 37 36 36 35 33 32 34 35 34 34 34 33 32 30 31 31 30 28
28 30 29 30 31 32 32 31 30 30 30 30 30 29 29 30 30 31 30 29 27 26 26 27 29 31 31 29 29 27 23 20 19 20 22 22 22 24 25 25 23 21 21 21 21 19 18 18 19 20 23 25 25 26 27 28 29 30 28 26 25 26 28 32 36 37 37 37 37 36 36 36 33 32 34 35 34 33 32 33 33 33 32 32 32 31
29 30 29 30 30 30 29 28 28 29 28 28 27 26 27 29 30 31 30 28 26 25 25 26 28 31 32 30 29 28 26 23 22 23 23 23 24 25 27 26 25 25 24 24 24 22 21 21 21 21 23 25 26 27 27 28 29 28 26 25 25 27 29 32 33 34 34 35 36 36 37 37 33 31 33 35 33 33 33 34 34 33 33 32 31 31
29 29 29 29 29 28 27 26 26 28 27 27 26 26 27 28 29 28 27 27 26 25 25 25 26 29 31 32 31 29 28 27 25 24 25 26 27 28 28 28 27 27 26 26 25 24 24 24 24 23 24 25 27 28 28 28 27 25 24 25 25 27 29 30 31 31 32 34 36 38 38 36 32 31 33 34 33 33 33 34 33 32 31 30 29 29
28 27 27 28 27 26 26 26 26 27 27 26 26 26 27 28 27 26 27 27 27 26 24 24 24 26 29 30 31 30 30 29 27 25 26 27 28 29 29 29 29 29 29 28 27 26 26 26 27 27 26 27 29 29 29 29 27 24 22 24 26 27 29 29 29 29 29 31 34 38 39 35 31 31 34 35 34 33 33 34 34 33 32 31 31 33
27 27 27 26 25 24 24 24 24 25 24 25 24 24 26 27 27 27 27 27 27 27 26 25 23 24 25 26 27 28 29 29 28 27 27 28 29 29 29 30 30 30 29 28 27 27 27 27 29 30 29 29 30 31 31 31 29 26 24 24 25 26 27 27 26 25 25 26 29 32 35 33 31 32 35 37 36 35 34 35 35 35 34 34 34 34
25 26 26 26 24 24 23 22 23 23 22 22 23 24 25 27 28 28 28 27 27 28 28 26 24 24 24 23 24 26 27 28 28 28 29 29 29 30 30 30 30 29 29 28 27 27 27 28 30 32 32 31 32 33 33 32 31 30 28 26 26 25 24 24 24 22 21 22 22 24 27 29 31 33 34 36 36 35 35 35 34 35 35 35 35 33
25 24 25 25 25 24 23 22 23 22 21 21 21 23 24 26 29 29 29 28 28 27 28 28 27 26 25 25 25 26 27 28 28 29 29 30 30 31 31 31 30 30 29 28 27 28 28 30 32 34 33 32 32 33 34 33 33 32 31 30 29 26 24 23 23 21 19 19 20 21 23 26 30 33 33 34 35 36 37 36 35 34 34 33 34 33
26 25 24 24 25 24 23 23 22 20 19 19 19 20 21 23 27 29 30 29 29 28 28 28 28 29 29 28 28 29 29 29 29 29 29 30 30 31 31 30 30 29 28 28 28 29 30 31 33 35 35 33 33 33 34 34 34 33 33 32 32 29 25 24 23 21 19 19 20 21 23 26 30 32 31 31 33 35 37 38 37 35 34 34 35 34
25 27 25 23 24 23 22 22 21 18 17 17 17 17 18 19 20 24 26 28 28 28 28 27 28 29 30 30 31 32 32 32 31 31 31 31 31 31 31 30 29 28 28 28 29 30 31 31 32 34 35 35 34 34 34 34 34 34 34 34 33 31 28 26 25 23 21 21 22 23 24 26 29 30 29 29 30 31 33 34 34 34 34 35 34 34
23 25 24 22 22 22 20 19 19 16 14 14 14 15 16 16 17 18 19 21 23 25 26 27 28 29 31 32 33 34 34 34 33 33 33 32 31 31 31 31 31 30 30 31 31 31 31 31 31 32 34 35 35 34 35 35 35 34 34 34 33 32 31 29 28 26 24 24 25 26 26 28 29 30 30 29 29 29 29 30 31 31 32 33 34 34
22 21 21 20 19 19 19 17 16 15 13 12 12 12 14 15 17 17 18 19 20 21 22 24 25 28 31 33 33 34 35 35 34 34 34 33 33 33 33 33 33 32 32 32 32 31 30 29 29 30 32 33 34 35 36 36 36 35 35 34 33 32 31 31 30 28 26 26 26 28 29 30 30 30 30 30 29 29 30 31 31 31 31 32 33 31
18 16 18 18 17 17 18 17 16 14 12 12 12 13 14 15 17 18 19 20 21 22 22 23 23 24 27 29 30 31 32 34 35 35 34 33 31 30 30 30 30 30 30 30 30 29 28 27 27 28 30 32 33 34 36 37 37 37 36 36 35 34 32 32 31 31 29 29 28 29 30 31 30 30 31 31 30 30 31 32 31 30 30 30 27 23
Wind_Direction
213 215 216 217 217 217 217 218 220 221 220 220 221 222 221 217 213 212 214 218 219 222 224 226 227 223 222 224 225 226 225 223 225 226 228 229 230 232 232 232 232 229 227 230 233 236 239 240 241 243 241 239 243 247 249 252 253 250 246 244 241 239 238 238 240 240 239 237 234 231 228 232 237 231 228 235 241 243 242 241 242 246 251 253 255 258
212 214 215 216 217 217 217 218 220 221 220 219 219 219 219 214 209 207 211 215 217 219 222 223 224 220 219 222 223 226 225 223 225 227 228 229 230 230 230 231 232 232 233 236 238 240 242 242 241 243 241 239 243 246 249 253 255 254 250 246 245 242 238 237 239 238 237 235 233 232 227 227 232 228 227 234 239 241 239 238 240 244 248 250 251 255
211 213 214 214 214 214 215 216 218 220 218 218 218 217 216 212 206 204 208 213 214 216 218 221 221 216 216 221 222 224 225 223 224 226 228 228 229 230 229 230 231 233 235 237 238 240 242 242 240 242 242 239 241 246 251 254 256 256 251 246 243 240 235 234 238 237 237 237 233 235 233 227 228 227 229 235 238 237 235 234 238 243 246 247 249 254
210 211 211 212 212 212 213 213 216 217 216 216 216 215 214 210 205 203 206 211 213 213 215 217 216 211 212 218 220 221 223 223 222 224 227 228 228 228 227 227 229 232 234 235 235 237 239 239 239 241 241 240 241 245 250 253 255 255 250 243 238 237 233 230 234 233 232 234 234 237 238 227 223 225 229 233 234 233 232 232 237 241 244 247 250 255
210 210 209 210 211 211 211 212 214 215 214 213 213 213 212 208 204 202 204 210 212 211 212 214 213 208 209 215 219 220 221 222 223 224 226 228 228 228 228 228 230 232 234 234 235 236 237 238 239 239 239 240 241 244 247 250 255 255 247 240 235 234 234 232 232 232 229 230 233 236 233 223 220 223 227 231 232 232 231 232 237 241 244 246 250 257
207 208 207 208 209 209 210 210 212 214 214 212 212 211 208 205 202 201 203 209 211 210 211 213 213 209 208 212 215 217 219 221 223 225 227 227 226 227 228 229 231 233 234 235 236 239 240 241 240 239 240 242 241 242 245 247 253 255 246 239 236 232 233 233 234 235 232 229 231 232 227 220 218 221 226 230 233 234 234 235 237 240 242 246 253 259
205 205 205 206 208 208 209 209 210 212 212 212 211 209 206 203 200 200 202 208 211 210 210 213 215 211 208 209 211 214 215 216 221 224 226 226 226 226 227 229 231 232 233 234 236 239 241 241 241 240 241 241 239 241 244 246 252 255 249 243 238 231 231 234 234 237 236 231 230 229 225 219 219 224 228 232 235 236 235 235 238 240 242 247 255 257
203 203 202 204 206 206 208 209 209 210 211 210 209 207 204 202 200 200 202 207 210 210 211 214 216 213 209 209 211 213 214 216 221 225 229 232 232 232 231 232 233 232 232 233 235 237 238 238 237 237 237 238 239 241 243 245 250 255 253 249 240 231 232 235 233 236 238 232 227 224 221 219 221 225 229 232 234 234 233 233 237 241 243 248 254 254
202 202 201 202 204 204 206 207 208 210 210 209 206 203 201 199 199 200 202 206 209 210 212 214 217 216 213 212 214 216 216 217 221 229 235 238 237 236 234 234 235 234 234 234 235 237 238 237 236 234 234 237 240 241 242 244 248 252 253 252 245 232 230 231 229 232 233 226 222 222 222 222 224 226 229 231 231 232 233 233 236 239 242 248 253 253
200 200 199 200 203 203 203 203 205 208 209 206 203 200 197 196 198 200 202 205 209 211 212 214 218 219 217 215 219 221 220 218 219 225 230 230 231 233 233 234 234 234 234 234 235 237 237 237 236 234 234 236 239 241 242 243 246 249 248 247 243 233 227 226 226 229 227 220 221 226 228 229 231 230 230 231 231 232 233 234 237 239 242 249 250 245
198 199 197 199 201 201 201 201 202 205 205 202 200 198 195 195 197 200 203 205 209 212 212 214 217 220 219 218 221 225 222 217 216 219 223 225 227 229 228 228 228 228 230 231 233 235 236 236 236 235 235 236 239 240 240 240 243 245 242 240 237 232 230 229 227 228 227 222 225 229 230 233 235 233 232 233 232 232 232 235 239 242 243 244 241 237
196 197 196 197 199 199 199 199 200 202 200 197 198 198 194 194 197 200 203 206 211 213 212 215 218 221 221 218 220 226 221 215 216 216 217 215 212 215 217 221 224 226 229 231 234 235 235 235 234 234 233 234 237 237 236 236 238 239 239 238 235 231 233 232 226 226 227 225 225 226 229 232 233 232 232 232 231 231 231 236 242 244 241 236 234 236
196 196 195 196 198 198 197 196 197 198 197 194 197 197 195 195 197 200 204 207 213 214 212 215 220 222 223 218 218 224 221 217 218 215 214 212 208 209 213 218 223 229 233 236 238 237 235 233 232 231 231 231 233 234 233 232 234 239 240 237 235 230 228 229 227 227 226 221 219 223 228 229 230 232 232 230 228 227 229 235 241 240 236 233 232 232
195 195 194 195 196 197 196 196 197 197 195 194 197 198 197 198 199 202 206 209 213 215 212 215 221 225 225 219 217 222 221 219 218 215 217 219 218 219 221 227 232 233 234 235 236 234 232 230 229 229 229 229 230 231 230 229 232 239 240 235 234 230 227 229 230 226 222 218 218 223 228 229 230 231 230 229 227 225 228 234 234 232 232 230 226 221
195 194 193 194 195 196 195 196 197 197 195 195 197 199 199 202 203 205 207 209 213 214 212 214 220 225 226 219 215 220 220 218 216 214 219 224 227 234 241 245 245 242 236 231 229 230 229 229 229 229 229 229 230 230 229 231 234 240 241 235 230 228 228 230 228 222 216 215 218 223 227 229 230 230 230 230 227 225 228 230 225 224 226 223 218 218
195 195 193 193 194 195 194 195 194 193 194 195 196 199 199 201 204 207 210 212 215 215 214 217 221 226 227 218 214 219 219 217 214 213 218 223 228 236 242 245 247 248 244 233 226 225 227 228 229 229 230 230 230 229 228 232 237 242 244 237 228 229 233 230 225 220 213 212 218 223 225 226 229 232 230 227 225 224 226 226 221 220 222 221 221 221
194 193 193 193 193 192 194 194 192 190 191 194 198 200 200 199 201 205 209 213 217 216 216 220 223 227 228 219 214 218 217 214 213 213 217 220 224 230 235 240 245 248 249 242 232 227 227 229 230 230 232 232 232 232 232 235 240 243 243 239 231 229 230 226 223 221 215 216 221 224 225 226 228 231 228 224 225 225 225 224 222 221 222 223 223 223
194 193 192 193 192 191 192 192 191 190 190 192 198 200 198 198 201 204 207 211 214 215 216 220 223 225 226 218 212 215 215 213 212 212 214 217 220 225 232 238 245 250 251 246 237 231 230 231 232 233 235 236 236 238 238 241 244 244 242 240 233 224 221 221 222 222 218 219 224 225 227 227 226 227 228 226 226 227 227 226 224 225 226 226 225 225
194 193 192 192 192 191 191 190 189 190 190 191 196 198 197 200 202 203 207 210 212 213 214 218 221 223 223 214 207 211 212 210 210 209 210 211 212 222 235 243 248 250 247 237 229 227 229 232 234 235 237 239 240 241 241 242 243 241 239 238 232 223 218 218 221 223 221 222 224 224 226 227 224 227 229 227 227 230 232 228 226 228 229 227 227 229
192 192 192 192 190 190 192 191 189 189 189 190 192 194 198 203 204 204 208 210 211 211 214 218 220 222 219 206 201 207 207 206 206 204 203 202 205 218 233 236 236 233 227 220 218 223 229 233 236 237 238 240 243 245 243 238 233 233 236 233 228 223 218 215 219 224 223 224 227 227 227 226 225 229 229 226 230 235 232 229 229 230 229 227 228 231
190 191 191 191 189 189 191 192 191 191 190 191 192 192 195 201 204 205 209 212 211 211 213 218 221 222 216 200 196 203 204 202 200 197 197 199 202 211 220 219 213 208 208 212 219 226 231 235 237 238 238 240 244 247 242 227 219 225 229 225 221 221 219 216 219 222 222 226 230 230 228 225 226 228 227 227 234 235 229 228 230 229 227 228 231 233
189 189 189 190 190 190 191 191 191 192 192 193 195 193 194 198 201 204 207 210 211 212 213 217 221 220 212 196 193 200 202 199 196 194 195 196 197 203 211 211 205 202 208 217 223 228 232 234 234 234 235 238 241 241 233 217 212 218 221 218 219 221 218 218 220 222 225 228 229 228 225 226 228 227 226 232 237 232 226 226 227 227 229 232 234 233
188 188 188 189 190 190 189 187 188 191 192 195 197 196 197 199 200 203 207 207 209 210 212 216 219 217 208 196 192 196 199 196 194 195 195 194 196 201 207 209 205 206 213 219 221 223 226 228 227 228 233 237 237 231 222 215 213 217 218 216 218 219 218 220 222 224 227 228 226 222 221 227 230 227 227 235 236 228 223 223 225 230 234 235 235 233
188 187 187 187 188 188 188 185 186 190 192 194 196 197 200 202 201 204 206 208 210 211 212 215 216 213 207 199 193 193 194 193 194 196 195 195 197 202 207 206 204 207 215 217 215 215 220 224 223 226 234 239 238 227 218 218 218 216 214 214 216 218 218 221 224 225 226 226 224 223 223 228 231 229 229 233 231 224 219 221 229 236 238 238 237 235
187 187 187 185 183 184 185 185 186 188 191 194 194 195 199 202 203 205 206 207 210 212 214 216 214 208 205 202 196 191 190 191 194 196 196 197 200 204 208 207 204 206 213 214 214 214 217 222 224 226 232 236 236 230 221 221 219 214 212 213 215 217 219 222 224 224 224 225 225 226 228 230 231 230 229 230 229 223 219 224 235 242 243 242 240 237
185 187 187 186 184 183 183 186 188 188 189 190 192 195 197 199 200 203 205 207 209 211 213 215 211 205 203 203 198 192 189 190 194 197 198 200 203 206 209 208 207 209 214 217 220 221 221 224 225 227 232 233 231 229 224 220 217 216 217 219 219 220 223 225 227 226 225 226 228 229 231 232 232 230 228 229 229 225 223 230 241 247 247 246 243 240
183 186 186 185 186 186 185 186 188 189 189 189 190 193 196 198 199 200 203 206 208 210 214 213 208 205 204 203 200 194 189 191 194 195 199 202 205 209 211 213 214 217 222 228 234 235 232 231 231 232 238 239 229 225 224 220 218 221 225 227 226 225 225 227 228 229 229 230 231 231 232 232 229 226 227 231 232 230 230 237 246 249 249 248 246 242
181 184 185 184 183 184 186 188 188 189 190 190 190 191 193 196 199 200 202 203 205 209 213 211 207 205 203 203 203 198 193 193 192 193 198 201 202 207 211 215 218 222 229 235 239 241 239 238 237 237 241 244 232 223 223 222 221 225 230 232 232 232 230 229 229 230 231 232 232 231 231 229 225 226 232 237 237 235 235 241 247 249 250 250 247 244
180 182 183 184 182 180 183 188 190 191 192 192 193 194 194 196 198 200 201 202 204 207 210 210 207 205 202 202 204 202 198 194 191 193 200 200 199 203 209 212 217 224 231 235 239 242 241 241 242 240 240 242 232 222 222 224 225 228 232 235 237 238 237 234 231 232 232 231 230 230 229 226 224 229 238 240 240 239 239 242 246 248 249 250 249 247
179 180 182 182 181 180 181 185 189 192 193 193 194 195 197 198 199 201 201 203 205 204 207 210 208 204 203 202 202 202 200 197 194 196 200 202 202 207 213 217 223 231 237 239 242 245 244 242 242 240 237 236 229 222 221 224 226 228 231 233 237 239 241 238 234 233 233 232 231 230 227 225 226 233 240 243 242 240 239 240 242 245 247 249 249 250
177 179 181 180 180 180 181 183 188 192 193 194 195 196 198 200 202 203 203 205 207 204 205 211 211 206 205 204 202 202 202 202 202 201 202 204 206 212 219 225 232 239 244 246 247 248 246 241 238 236 233 229 224 220 222 226 228 230 232 236 239 242 244 243 238 236 236 235 233 232 229 228 230 236 243 246 245 241 239 239 240 243 245 247 249 250
177 178 179 178 179 180 181 183 188 192 193 195 197 197 198 200 202 204 205 207 208 206 206 210 213 212 210 209 207 206 206 207 208 207 206 207 210 216 222 229 237 243 247 249 250 251 247 240 234 232 230 226 222 221 223 228 232 235 238 241 245 247 248 248 244 240 238 238 238 237 236 235 236 241 245 247 246 243 239 239 239 241 243 246 248 249
176 178 176 176 177 178 180 183 187 191 194 194 195 197 200 201 202 204 206 207 207 207 207 209 212 215 217 215 213 211 210 212 214 214 214 213 216 222 228 234 239 244 246 249 253 254 249 240 235 232 231 229 228 226 228 230 234 239 243 246 249 250 250 250 248 245 242 243 243 241 240 240 240 241 244 245 244 242 239 238 240 241 243 245 247 248
178 177 174 174 176 177 180 183 186 191 194 193 192 195 199 202 203 205 206 207 207 207 207 207 209 216 220 220 218 216 211 210 212 215 216 218 221 227 233 237 240 242 246 250 253 253 248 244 239 230 224 226 228 230 232 235 238 242 246 249 251 250 246 246 249 249 246 245 244 243 242 242 241 240 241 243 243 241 240 240 240 241 242 245 248 250
179 175 173 174 175 175 178 184 188 191 193 193 192 193 195 197 200 203 206 208 209 208 208 207 209 215 219 220 222 222 215 206 202 205 210 215 220 226 231 235 238 241 246 249 250 249 248 249 244 231 222 222 227 233 237 240 243 245 247 250 252 251 246 245 249 250 247 245 244 243 242 242 240 239 239 242 243 242 241 240 240 241 243 248 251 252
178 172 173 175 175 175 179 186 190 190 191 192 193 194 194 193 195 198 201 205 206 206 206 205 207 211 214 216 221 223 218 206 196 197 203 210 217 223 228 231 234 237 241 241 240 242 246 247 243 235 229 229 233 240 244 245 247 250 252 254 256 254 248 246 248 249 249 248 246 245 243 242 240 238 238 241 242 241 238 237 238 241 244 248 251 253
175 172 173 175 176 178 181 185 188 189 191 192 193 194 195 195 195 197 199 202 203 203 202 201 202 205 206 208 215 219 215 206 198 197 202 208 212 216 220 224 228 231 232 228 226 229 233 235 233 230 230 232 236 241 244 247 249 251 254 258 261 258 250 247 248 249 249 247 246 245 243 240 239 238 239 240 239 237 235 236 238 241 243 246 249 253
172 173 175 175 177 181 183 185 186 188 192 194 194 195 196 197 197 198 199 202 203 202 200 199 197 198 199 202 210 214 212 206 199 198 201 205 207 209 215 225 230 232 229 224 223 228 232 233 231 228 228 231 236 240 245 248 249 251 253 257 261 261 256 251 250 251 249 246 243 243 242 239 239 238 239 239 238 235 235 238 242 245 246 248 250 252
170 173 175 177 179 182 185 187 188 189 191 194 195 195 196 197 199 198 199 204 205 203 202 200 196 195 198 203 211 215 214 208 203 202 202 201 203 211 221 229 231 231 228 226 228 235 239 238 237 234 232 234 239 245 250 251 251 253 256 257 257 257 256 253 251 251 251 249 244 239 237 238 238 238 239 239 237 235 236 241 245 247 249 254 254 251
171 173 175 178 182 184 185 188 190 191 192 195 196 196 197 198 200 200 200 203 205 205 206 204 199 198 203 209 215 218 216 209 208 211 211 208 208 214 221 227 230 231 232 232 234 238 240 238 237 237 237 238 240 246 252 255 255 257 259 258 254 251 251 251 250 250 250 249 244 238 234 235 238 240 241 240 237 236 239 243 246 248 253 258 253 247
172 175 177 179 183 184 184 186 191 193 194 196 196 196 197 199 202 204 202 203 205 208 210 209 205 205 209 214 219 221 220 216 213 214 217 218 220 222 225 229 232 233 235 237 239 242 241 236 233 235 238 238 239 242 249 256 260 262 262 260 257 254 253 252 252 252 252 250 246 240 234 233 237 242 241 238 238 239 242 246 249 251 257 259 250 244
173 177 180 183 185 185 184 186 190 193 195 197 197 197 198 201 204 204 202 203 205 207 212 213 211 211 214 218 222 225 226 226 223 220 220 221 224 228 230 233 235 238 241 244 246 247 245 237 231 232 236 237 239 242 247 254 260 264 263 260 258 258 257 255 254 255 256 256 250 241 233 231 235 242 241 239 240 241 243 249 253 254 258 260 255 251
174 177 181 186 189 188 188 188 190 193 196 197 197 200 201 202 203 202 202 204 204 205 209 213 213 214 217 220 224 227 230 232 233 230 228 226 227 230 233 236 239 242 246 248 250 251 249 240 232 231 234 236 238 241 245 252 259 260 255 251 251 252 253 255 257 257 258 257 250 237 228 228 235 240 241 241 242 241 244 250 256 258 260 262 261 260
177 181 185 189 191 191 191 191 191 193 198 198 198 201 203 202 203 203 203 205 204 204 207 209 210 213 216 219 222 227 231 234 235 234 233 233 234 235 236 239 241 244 246 247 248 249 249 242 234 232 234 236 238 240 243 251 258 260 253 247 246 249 252 256 261 262 259 258 251 235 225 227 236 239 241 243 244 245 247 252 256 259 261 262 264 265
184 187 191 193 196 196 195 193 191 192 195 196 197 200 202 202 204 205 206 206 206 207 208 208 208 212 215 218 222 227 231 233 235 236 236 238 240 241 242 243 245 246 247 247 247 247 246 243 236 233 233 236 238 239 242 248 255 259 257 252 249 250 252 254 259 262 260 260 258 245 234 236 242 245 247 249 249 250 252 254 257 260 262 266 271 273
189 192 194 196 199 200 197 194 192 192 194 194 195 198 201 202 205 208 209 209 208 209 210 211 211 214 218 221 225 230 232 234 236 238 239 241 242 243 245 246 247 248 248 249 250 248 246 243 239 235 234 236 238 240 242 246 251 255 258 257 254 252 252 253 256 260 259 258 257 253 248 248 250 253 255 257 257 257 257 258 262 265 265 270 276 278
187 191 195 196 197 198 198 196 193 190 192 194 194 196 200 202 205 209 213 213 212 212 213 214 216 220 223 226 228 232 233 234 236 238 240 242 244 246 247 248 248 249 251 252 253 252 249 247 243 240 238 239 240 240 241 244 249 253 255 256 256 256 256 256 257 259 259 258 258 257 254 252 253 255 258 261 262 261 261 262 264 266 267 271 277 279
187 192 196 197 196 196 197 197 195 190 187 188 189 191 195 199 202 206 212 216 217 217 217 218 220 223 226 229 231 232 233 234 235 238 240 243 246 249 251 252 253 254 255 256 257 256 254 250 246 243 243 242 241 240 240 242 247 250 252 254 257 259 259 258 258 258 256 255 257 257 256 253 254 256 260 263 264 263 263 264 265 267 270 274 279 281
187 192 196 197 198 198 196 196 198 195 188 187 186 187 190 194 196 199 204 209 214 217 219 221 223 225 227 229 231 233 234 236 238 240 242 245 248 251 254 257 258 259 260 261 261 260 258 253 247 244 243 242 241 238 238 241 245 247 250 253 255 258 260 261 262 261 258 254 253 255 255 255 256 258 260 263 264 265 265 266 267 270 274 276 279 281
185 187 191 193 195 197 196 194 193 193 194 198 201 201 198 197 197 199 199 201 205 210 214 217 220 223 225 229 233 236 238 240 241 243 244 247 249 252 255 257 260 261 262 263 263 262 258 253 247 242 240 240 240 238 237 240 243 246 249 252 254 257 260 263 265 265 264 261 257 256 256 256 257 259 260 262 264 265 266 266 269 272 276 278 280 280
185 183 188 193 197 198 197 195 194 199 208 217 219 218 213 206 202 202 203 203 205 208 210 212 214 217 220 223 228 233 238 241 244 245 247 248 249 252 256 258 259 260 261 261 261 260 256 251 246 242 239 238 238 237 238 240 243 245 248 251 254 256 258 261 264 265 266 264 261 259 259 259 260 261 263 265 266 267 266 267 269 272 274 277 278 275
Height
5653 5659 5666 5673 5681 5687 5693 5698 5701 5704 5711 5717 5723 5728 5734 5741 5747 5751 5754 5755 5758 5760 5761 5764 5768 5773 5777 5778 5780 5783 5786 5789 5791 5794 5797 5799 5800 5802 5805 5808 5810 5812 5813 5814 5817 5819 5820 5821 5822 5822 5823 5824 5824 5824 5824 5824 5824 5824 5824 5824 5824 5825 5825 5826 5826 5826 5825 5826 5826 5827 5829 5830 5831 5833 5834 5835 5837 5838 5839 5839 5839 5838 5838 5839 5840 5841
5647 5654 5663 5671 5678 5684 5690 5695 5698 5702 5708 5714 5719 5725 5731 5738 5743 5747 5750 5751 5754 5756 5759 5761 5764 5769 5772 5774 5776 5778 5781 5785 5788 5791 5794 5796 5797 5800 5803 5805 5808 5809 5810 5812 5815 5816 5817 5818 5819 5819 5821 5821 5821 5821 5821 5821 5821 5822 5822 5822 5822 5822 5822 5823 5822 5822 5822 5823 5824 5825 5826 5827 5829 5830 5832 5833 5834 5836 5836 5836 5836 5836 5837 5838 5839 5839
5642 5651 5659 5665 5672 5679 5685 5690 5694 5698 5704 5710 5716 5722 5728 5734 5739 5743 5746 5748 5750 5753 5756 5758 5761 5766 5769 5770 5771 5773 5777 5782 5785 5787 5789 5792 5794 5797 5800 5802 5804 5805 5807 5810 5812 5813 5814 5815 5815 5816 5817 5818 5818 5819 5819 5819 5819 5819 5819 5819 5819 5819 5819 5819 5818 5819 5821 5822 5823 5824 5824 5825 5827 5828 5829 5831 5832 5833 5833 5833 5833 5834 5835 5836 5837 5837
5639 5646 5653 5660 5667 5673 5679 5684 5689 5693 5700 5706 5712 5718 5724 5731 5736 5739 5742 5745 5747 5751 5753 5756 5759 5763 5765 5765 5767 5770 5774 5777 5780 5783 5784 5787 5791 5794 5797 5798 5800 5802 5804 5806 5808 5809 5810 5811 5812 5813 5814 5815 5815 5816 5816 5816 5816 5816 5814 5814 5814 5815 5815 5815 5816 5817 5819 5820 5821 5822 5823 5823 5824 5826 5827 5828 5829 5830 5830 5831 5831 5832 5834 5835 5836 5836
5634 5640 5648 5655 5662 5668 5674 5679 5684 5688 5695 5701 5707 5714 5721 5728 5733 5737 5740 5742 5745 5748 5751 5753 5756 5759 5760 5762 5764 5767 5770 5773 5776 5778 5781 5784 5788 5791 5793 5795 5797 5799 5801 5803 5804 5805 5806 5808 5809 5810 5810 5811 5812 5813 5813 5814 5813 5812 5812 5811 5810 5810 5812 5812 5813 5814 5815 5816 5818 5819 5820 5820 5822 5823 5824 5825 5826 5827 5828 5828 5829 5831 5833 5834 5834 5834
5628 5636 5644 5651 5657 5663 5669 5675 5681 5686 5692 5698 5704 5711 5718 5724 5730 5733 5737 5739 5742 5745 5748 5750 5752 5755 5758 5760 5763 5765 5768 5771 5773 5775 5778 5782 5785 5787 5789 5793 5795 5797 5798 5799 5801 5802 5804 5805 5806 5807 5807 5808 5809 5810 5810 5811 5811 5810 5809 5810 5809 5807 5809 5810 5811 5811 5812 5813 5814 5815 5816 5817 5819 5820 5821 5823 5824 5825 5826 5827 5828 5830 5831 5832 5832 5832
5622 5631 5640 5646 5653 5660 5666 5672 5678 5683 5689 5695 5702 5709 5715 5721 5726 5730 5733 5736 5739 5742 5745 5748 5750 5753 5757 5758 5761 5763 5765 5768 5770 5772 5775 5778 5781 5783 5787 5790 5791 5793 5795 5796 5797 5799 5801 5802 5803 5804 5804 5805 5806 5807 5808 5809 5809 5807 5807 5808 5808 5807 5808 5809 5809 5808 5808 5809 5810 5811 5812 5814 5816 5818 5820 5821 5823 5824 5825 5826 5827 5828 5829 5830 5830 5830
5618 5626 5635 5641 5649 5656 5662 5669 5675 5680 5686 5692 5699 5707 5713 5719 5723 5727 5730 5733 5736 5740 5743 5744 5747 5751 5753 5755 5758 5760 5762 5765 5767 5770 5774 5777 5779 5782 5785 5787 5788 5790 5792 5793 5794 5796 5797 5799 5800 5800 5801 5802 5803 5804 5805 5806 5807 5806 5805 5805 5805 5806 5807 5807 5806 5806 5806 5807 5807 5808 5810 5812 5814 5816 5818 5820 5821 5822 5823 5824 5825 5825 5827 5828 5828 5827
5615 5622 5630 5637 5644 5651 5658 5667 5674 5678 5683 5690 5697 5704 5710 5716 5720 5724 5727 5730 5733 5737 5739 5741 5744 5747 5750 5753 5755 5756 5759 5763 5767 5771 5773 5775 5777 5779 5781 5783 5785 5787 5789 5790 5791 5793 5794 5795 5796 5797 5798 5799 5800 5801 5803 5804 5805 5805 5804 5802 5801 5802 5803 5803 5803 5804 5804 5805 5806 5807 5809 5811 5812 5813 5815 5817 5818 5819 5820 5822 5823 5823 5825 5825 5825 5825
5609 5618 5627 5635 5641 5648 5655 5664 5671 5676 5681 5689 5695 5701 5707 5712 5716 5720 5723 5726 5730 5733 5735 5738 5740 5743 5747 5751 5752 5753 5758 5763 5767 5770 5771 5772 5774 5775 5778 5780 5782 5784 5786 5787 5789 5790 5791 5792 5793 5794 5795 5796 5797 5799 5800 5802 5802 5803 5802 5799 5797 5798 5799 5801 5801 5801 5802 5804 5806 5807 5808 5809 5810 5811 5812 5814 5815 5816 5818 5819 5820 5821 5823 5823 5823 5822
5607 5616 5624 5631 5637 5645 5653 5661 5667 5672 5679 5687 5693 5698 5703 5708 5712 5716 5719 5723 5726 5728 5731 5734 5736 5739 5743 5747 5749 5752 5758 5763 5766 5767 5768 5770 5772 5774 5775 5777 5779 5781 5782 5784 5785 5787 5788 5789 5790 5791 5793 5794 5795 5796 5798 5799 5800 5800 5797 5794 5796 5798 5799 5801 5801 5800 5801 5803 5805 5805 5806 5807 5808 5809 5810 5812 5813 5814 5816 5817 5818 5820 5821 5820 5820 5821
5604 5612 5620 5628 5634 5642 5650 5658 5664 5669 5676 5684 5690 5694 5700 5704 5708 5712 5715 5719 5721 5723 5728 5731 5733 5735 5738 5743 5748 5752 5758 5761 5762 5765 5767 5768 5770 5772 5773 5774 5776 5777 5779 5781 5782 5784 5785 5786 5787 5789 5791 5792 5793 5794 5795 5796 5797 5795 5791 5793 5797 5799 5799 5800 5801 5799 5799 5801 5802 5803 5804 5805 5806 5808 5809 5810 5811 5812 5814 5815 5817 5819 5818 5817 5818 5819
5602 5609 5618 5625 5631 5638 5646 5653 5659 5665 5672 5680 5685 5690 5695 5699 5703 5707 5710 5714 5715 5718 5725 5728 5730 5731 5733 5741 5747 5750 5755 5758 5760 5763 5765 5766 5767 5769 5770 5771 5773 5774 5776 5778 5780 5781 5782 5783 5785 5786 5788 5789 5790 5791 5792 5793 5793 5789 5789 5794 5797 5796 5796 5799 5800 5799 5797 5798 5799 5800 5802 5803 5804 5806 5807 5808 5809 5810 5812 5813 5816 5816 5816 5815 5816 5817
5599 5606 5614 5621 5628 5635 5643 5649 5655 5661 5668 5675 5680 5685 5689 5693 5697 5701 5705 5709 5710 5714 5722 5726 5726 5726 5731 5740 5746 5748 5753 5756 5758 5761 5762 5764 5765 5766 5767 5768 5770 5772 5773 5775 5777 5778 5779 5781 5782 5783 5785 5786 5787 5789 5789 5790 5789 5786 5788 5793 5794 5793 5794 5796 5797 5797 5795 5795 5797 5798 5800 5801 5803 5804 5805 5806 5807 5808 5810 5812 5813 5814 5813 5814 5815 5816
5596 5603 5611 5619 5626 5634 5642 5648 5655 5662 5668 5672 5677 5682 5687 5691 5695 5698 5701 5704 5707 5712 5720 5722 5722 5723 5729 5739 5745 5747 5750 5753 5755 5758 5760 5762 5763 5764 5766 5767 5768 5770 5771 5773 5774 5776 5777 5778 5780 5781 5782 5784 5785 5786 5787 5787 5786 5784 5785 5789 5790 5790 5792 5793 5794 5793 5793 5794 5796 5797 5799 5800 5801 5803 5803 5805 5806 5807 5809 5811 5811 5811 5812 5813 5814 5814
5595 5603 5611 5619 5626 5633 5640 5646 5653 5661 5667 5672 5676 5681 5685 5690 5695 5698 5701 5704 5707 5712 5718 5719 5719 5721 5728 5739 5744 5744 5747 5750 5753 5756 5757 5760 5762 5763 5764 5765 5767 5768 5769 5771 5772 5773 5775 5776 5777 5779 5780 5781 5782 5783 5784 5784 5783 5781 5782 5785 5788 5789 5790 5790 5790 5791 5792 5793 5794 5796 5797 5798 5799 5801 5801 5803 5804 5805 5807 5809 5809 5809 5810 5812 5813 5813
5594 5603 5611 5618 5624 5631 5638 5645 5651 5657 5663 5670 5674 5678 5683 5688 5692 5696 5700 5703 5707 5712 5717 5717 5718 5722 5729 5737 5741 5742 5745 5748 5750 5753 5756 5758 5760 5761 5763 5764 5765 5766 5768 5769 5770 5772 5773 5774 5776 5777 5778 5779 5779 5781 5782 5781 5780 5779 5778 5781 5785 5787 5788 5787 5787 5789 5790 5792 5792 5794 5795 5796 5798 5799 5800 5800 5802 5804 5806 5807 5807 5808 5809 5811 5811 5811
5595 5602 5609 5616 5623 5629 5636 5644 5651 5656 5661 5666 5671 5676 5681 5685 5689 5693 5696 5699 5703 5709 5712 5714 5717 5721 5726 5734 5739 5740 5743 5746 5749 5752 5754 5757 5759 5760 5762 5763 5764 5765 5767 5768 5770 5771 5772 5773 5775 5776 5776 5776 5777 5779 5780 5779 5778 5777 5776 5777 5781 5784 5785 5784 5785 5787 5788 5789 5791 5792 5793 5794 5796 5797 5798 5799 5800 5802 5804 5805 5805 5806 5808 5809 5809 5809
5595 5602 5608 5615 5622 5629 5634 5640 5646 5653 5658 5664 5669 5675 5680 5682 5685 5689 5692 5695 5700 5705 5709 5711 5714 5718 5723 5732 5737 5739 5742 5745 5748 5751 5753 5756 5758 5760 5761 5762 5763 5764 5766 5767 5769 5770 5771 5772 5773 5774 5774 5774 5775 5776 5776 5776 5777 5776 5773 5773 5777 5781 5783 5783 5783 5785 5786 5788 5789 5790 5791 5792 5794 5795 5796 5797 5799 5800 5802 5803 5803 5805 5806 5807 5807 5807
5593 5601 5607 5614 5621 5627 5632 5637 5643 5648 5654 5660 5666 5672 5677 5680 5684 5687 5690 5693 5699 5704 5707 5709 5712 5715 5722 5731 5736 5737 5740 5743 5746 5749 5752 5755 5757 5759 5760 5761 5761 5762 5764 5766 5767 5768 5769 5770 5771 5771 5772 5772 5773 5773 5773 5774 5774 5774 5772 5772 5776 5779 5781 5781 5782 5783 5785 5786 5788 5789 5789 5790 5792 5793 5794 5796 5798 5799 5800 5801 5802 5803 5804 5805 5805 5806
5593 5599 5606 5612 5618 5624 5629 5636 5642 5647 5652 5656 5661 5666 5672 5676 5681 5686 5689 5694 5698 5703 5705 5708 5710 5714 5722 5730 5734 5736 5738 5741 5744 5747 5750 5753 5755 5757 5758 5759 5759 5760 5762 5764 5765 5766 5766 5767 5768 5769 5769 5770 5770 5771 5771 5771 5772 5772 5772 5772 5775 5777 5779 5780 5781 5782 5783 5785 5786 5787 5788 5789 5790 5791 5793 5795 5796 5797 5798 5799 5800 5801 5802 5803 5803 5804
5592 5598 5605 5611 5617 5622 5628 5635 5643 5649 5654 5658 5661 5664 5668 5672 5678 5683 5687 5692 5697 5701 5704 5706 5709 5714 5722 5729 5732 5734 5736 5739 5742 5745 5747 5750 5752 5754 5756 5757 5757 5758 5760 5761 5762 5763 5764 5765 5766 5767 5767 5768 5768 5769 5769 5770 5771 5771 5771 5772 5774 5776 5777 5778 5779 5780 5781 5782 5784 5785 5786 5788 5789 5790 5792 5793 5794 5795 5797 5797 5798 5799 5800 5801 5801 5802
5593 5598 5604 5610 5616 5622 5628 5635 5643 5649 5654 5659 5663 5667 5669 5672 5676 5681 5685 5689 5694 5698 5702 5704 5708 5714 5721 5726 5729 5732 5734 5737 5740 5743 5745 5748 5750 5752 5753 5755 5756 5757 5758 5759 5760 5761 5762 5763 5764 5765 5766 5766 5767 5767 5768 5769 5770 5770 5771 5772 5773 5774 5776 5777 5778 5779 5779 5781 5782 5783 5785 5787 5787 5789 5790 5791 5792 5794 5795 5796 5797 5797 5798 5799 5800 5800
5593 5598 5602 5608 5615 5623 5630 5636 5641 5647 5651 5655 5660 5666 5670 5673 5677 5681 5686 5691 5695 5698 5701 5703 5708 5714 5719 5724 5727 5730 5732 5735 5738 5741 5744 5746 5748 5750 5751 5753 5754 5755 5756 5758 5759 5760 5761 5762 5763 5764 5764 5765 5765 5766 5766 5768 5768 5769 5770 5771 5772 5773 5774 5775 5776 5777 5778 5779 5780 5782 5784 5785 5786 5787 5788 5789 5790 5791 5793 5794 5795 5795 5796 5797 5798 5798
5593 5597 5601 5606 5612 5619 5625 5631 5635 5640 5646 5652 5658 5663 5667 5673 5678 5682 5687 5691 5694 5697 5700 5703 5708 5713 5718 5721 5725 5728 5731 5734 5737 5739 5742 5745 5747 5748 5750 5751 5752 5754 5755 5756 5757 5759 5760 5761 5762 5763 5763 5763 5764 5764 5765 5766 5767 5768 5769 5770 5771 5772 5773 5774 5775 5776 5777 5778 5779 5780 5782 5783 5784 5785 5787 5787 5788 5789 5791 5792 5793 5793 5794 5795 5796 5796
5593 5598 5603 5607 5611 5615 5621 5627 5633 5638 5643 5649 5656 5662 5666 5671 5676 5681 5686 5688 5691 5695 5698 5702 5708 5713 5716 5719 5722 5726 5729 5732 5735 5738 5740 5743 5744 5746 5748 5750 5751 5753 5754 5755 5756 5758 5759 5760 5760 5761 5761 5762 5762 5763 5764 5765 5766 5767 5768 5769 5770 5771 5771 5772 5773 5774 5775 5776 5777 5778 5780 5781 5783 5784 5785 5785 5786 5787 5789 5790 5791 5791 5792 5793 5793 5794
5594 5599 5604 5609 5615 5620 5624 5628 5634 5639 5643 5647 5653 5658 5664 5669 5674 5678 5682 5686 5690 5694 5697 5702 5707 5712 5715 5717 5720 5723 5727 5730 5733 5736 5738 5740 5742 5744 5746 5748 5750 5751 5752 5753 5754 5755 5756 5757 5758 5759 5760 5761 5761 5762 5763 5764 5765 5766 5767 5768 5769 5769 5770 5771 5772 5773 5773 5774 5775 5777 5778 5780 5781 5782 5783 5784 5785 5786 5787 5788 5789 5789 5790 5790 5791 5792
5595 5600 5605 5610 5615 5621 5627 5631 5635 5640 5644 5648 5652 5656 5661 5666 5671 5675 5679 5684 5689 5693 5696 5701 5706 5710 5714 5717 5719 5721 5724 5727 5731 5733 5735 5738 5740 5742 5744 5746 5748 5749 5750 5751 5752 5752 5753 5755 5756 5757 5758 5759 5760 5761 5762 5763 5764 5764 5765 5766 5767 5768 5768 5769 5770 5771 5771 5772 5774 5775 5777 5779 5780 5781 5782 5782 5783 5784 5785 5786 5787 5787 5787 5788 5789 5790
5597 5601 5606 5610 5615 5620 5626 5632 5637 5640 5645 5650 5654 5657 5661 5664 5669 5673 5678 5683 5687 5691 5696 5700 5704 5709 5713 5715 5717 5720 5723 5725 5728 5730 5733 5735 5738 5740 5742 5744 5746 5747 5748 5748 5749 5749 5750 5752 5753 5755 5756 5757 5758 5759 5760 5761 5762 5763 5764 5765 5765 5766 5767 5768 5768 5769 5770 5770 5771 5773 5775 5776 5777 5779 5779 5780 5781 5782 5783 5784 5784 5784 5785 5786 5787 5787
5599 5603 5607 5612 5617 5621 5625 5630 5636 5641 5645 5649 5654 5658 5662 5666 5669 5674 5678 5682 5686 5690 5695 5698 5702 5706 5710 5713 5715 5718 5721 5723 5725 5728 5730 5733 5736 5738 5740 5742 5743 5744 5745 5745 5746 5747 5748 5749 5751 5752 5754 5755 5756 5757 5759 5760 5761 5761 5762 5762 5763 5763 5764 5765 5766 5767 5767 5768 5769 5771 5772 5774 5775 5776 5777 5777 5778 5779 5780 5781 5781 5781 5782 5783 5784 5785
5600 5604 5608 5613 5618 5622 5626 5630 5635 5640 5644 5649 5653 5657 5662 5666 5670 5674 5678 5681 5684 5689 5693 5696 5700 5704 5708 5711 5714 5717 5720 5722 5724 5726 5729 5731 5734 5736 5738 5739 5740 5741 5742 5743 5744 5745 5746 5747 5748 5750 5751 5753 5754 5755 5756 5757 5758 5759 5759 5760 5760 5761 5761 5762 5764 5765 5765 5766 5767 5769 5770 5771 5772 5773 5774 5775 5775 5776 5777 5777 5778 5779 5780 5780 5781 5782
5601 5605 5609 5613 5618 5622 5627 5631 5635 5640 5644 5649 5652 5656 5659 5663 5668 5673 5677 5680 5684 5689 5693 5695 5699 5703 5706 5710 5713 5716 5718 5720 5723 5725 5727 5730 5732 5734 5735 5737 5738 5738 5739 5740 5741 5742 5743 5744 5746 5747 5748 5750 5751 5752 5754 5754 5755 5756 5756 5757 5757 5757 5758 5759 5760 5762 5763 5764 5765 5767 5768 5769 5770 5771 5771 5771 5772 5773 5774 5774 5775 5776 5777 5778 5779 5779
5602 5605 5609 5614 5618 5623 5627 5631 5635 5639 5642 5645 5649 5654 5659 5663 5668 5672 5676 5680 5684 5689 5692 5695 5699 5703 5705 5708 5712 5714 5717 5719 5721 5723 5726 5728 5730 5731 5733 5734 5735 5736 5736 5737 5739 5740 5741 5742 5744 5745 5746 5747 5749 5750 5751 5752 5753 5753 5753 5754 5753 5754 5755 5756 5757 5759 5761 5762 5763 5765 5765 5766 5767 5767 5768 5768 5768 5769 5770 5771 5772 5773 5774 5775 5776 5777
5602 5605 5610 5614 5618 5622 5627 5631 5634 5637 5641 5644 5649 5654 5659 5664 5668 5672 5676 5680 5684 5688 5691 5695 5699 5702 5704 5707 5710 5712 5715 5717 5719 5721 5724 5726 5728 5729 5730 5731 5732 5733 5734 5735 5737 5738 5739 5740 5742 5744 5745 5746 5747 5748 5749 5750 5751 5751 5751 5750 5749 5750 5752 5753 5755 5757 5758 5759 5760 5761 5762 5763 5763 5764 5764 5764 5765 5767 5768 5768 5769 5770 5772 5773 5774 5775
5603 5607 5611 5614 5618 5622 5626 5630 5633 5636 5641 5646 5650 5653 5657 5662 5667 5672 5676 5680 5683 5687 5691 5695 5698 5700 5703 5706 5708 5710 5713 5715 5717 5719 5722 5724 5725 5726 5727 5728 5729 5731 5732 5734 5736 5736 5737 5739 5740 5742 5743 5744 5745 5746 5747 5747 5748 5747 5747 5747 5747 5749 5751 5752 5752 5754 5754 5755 5756 5758 5759 5759 5760 5760 5761 5762 5763 5765 5765 5766 5767 5768 5770 5771 5772 5772
5605 5609 5612 5615 5619 5622 5626 5630 5633 5638 5642 5646 5650 5653 5656 5660 5664 5668 5672 5676 5680 5685 5689 5693 5696 5699 5702 5704 5706 5708 5711 5713 5715 5717 5719 5721 5723 5724 5725 5726 5728 5730 5731 5733 5734 5735 5736 5737 5738 5740 5741 5742 5743 5744 5744 5744 5744 5744 5744 5744 5745 5747 5749 5749 5749 5750 5751 5752 5754 5754 5755 5755 5756 5757 5758 5760 5761 5762 5762 5763 5765 5766 5768 5768 5769 5770
5608 5611 5613 5617 5621 5624 5626 5630 5635 5639 5642 5645 5649 5652 5656 5659 5663 5667 5670 5674 5678 5682 5686 5690 5694 5697 5700 5703 5705 5707 5709 5712 5715 5716 5718 5719 5721 5722 5724 5726 5727 5729 5730 5731 5732 5733 5734 5735 5736 5737 5738 5739 5740 5740 5740 5741 5741 5740 5741 5742 5742 5744 5745 5745 5745 5746 5748 5749 5749 5750 5751 5752 5753 5755 5757 5757 5758 5758 5758 5759 5761 5763 5764 5765 5766 5767
5610 5612 5615 5618 5621 5625 5627 5631 5635 5639 5642 5645 5648 5652 5656 5660 5663 5667 5671 5674 5677 5681 5685 5688 5692 5696 5699 5701 5703 5705 5708 5712 5714 5715 5717 5718 5720 5722 5723 5724 5725 5726 5728 5729 5730 5731 5732 5733 5734 5735 5736 5736 5737 5737 5737 5737 5737 5736 5738 5739 5740 5741 5742 5742 5742 5742 5743 5743 5744 5745 5746 5749 5751 5753 5754 5753 5754 5754 5755 5757 5759 5761 5761 5762 5762 5763
5611 5614 5617 5620 5623 5626 5629 5632 5635 5638 5642 5645 5649 5652 5656 5659 5663 5667 5670 5673 5676 5680 5684 5687 5691 5694 5697 5699 5702 5704 5708 5711 5712 5714 5715 5716 5718 5719 5720 5721 5723 5724 5726 5727 5728 5729 5730 5731 5731 5732 5733 5734 5734 5734 5733 5733 5733 5733 5735 5736 5737 5738 5738 5738 5737 5736 5737 5738 5740 5742 5744 5746 5748 5749 5749 5749 5751 5752 5753 5755 5757 5757 5758 5759 5759 5759
5612 5615 5619 5622 5624 5627 5629 5633 5636 5639 5642 5646 5649 5652 5656 5659 5662 5665 5669 5672 5675 5679 5682 5686 5690 5693 5695 5697 5700 5703 5706 5709 5711 5712 5713 5714 5715 5716 5717 5719 5720 5722 5723 5724 5725 5726 5727 5728 5728 5729 5730 5730 5731 5731 5730 5730 5730 5730 5731 5732 5734 5734 5733 5732 5731 5732 5733 5735 5737 5740 5741 5743 5744 5745 5745 5746 5748 5750 5751 5752 5753 5754 5754 5755 5756 5756
5613 5616 5619 5622 5625 5628 5630 5633 5637 5640 5643 5646 5649 5652 5655 5658 5661 5664 5668 5672 5675 5678 5681 5684 5688 5691 5693 5696 5698 5701 5704 5706 5708 5709 5711 5712 5713 5714 5715 5717 5718 5720 5721 5722 5723 5724 5724 5725 5725 5726 5727 5727 5727 5728 5728 5727 5727 5727 5728 5729 5729 5729 5728 5728 5728 5730 5731 5732 5734 5736 5738 5740 5741 5741 5741 5743 5745 5747 5748 5748 5749 5750 5751 5751 5752 5752
5614 5617 5620 5623 5625 5628 5631 5634 5637 5640 5643 5646 5649 5652 5654 5657 5660 5664 5668 5671 5674 5677 5680 5683 5686 5689 5691 5693 5696 5698 5701 5703 5705 5707 5708 5710 5711 5712 5713 5715 5716 5717 5718 5719 5720 5721 5722 5722 5722 5723 5723 5723 5723 5724 5724 5724 5724 5725 5726 5726 5725 5725 5724 5724 5725 5726 5727 5728 5730 5732 5734 5736 5737 5737 5737 5740 5742 5744 5745 5745 5745 5747 5748 5748 5749 5749
5615 5618 5621 5624 5626 5629 5631 5634 5637 5640 5643 5645 5648 5651 5653 5656 5660 5664 5667 5670 5673 5676 5678 5681 5684 5686 5689 5691 5694 5696 5697 5699 5702 5704 5705 5707 5708 5709 5711 5712 5713 5714 5715 5716 5717 5717 5718 5719 5719 5720 5720 5720 5720 5720 5721 5721 5721 5723 5725 5724 5723 5722 5721 5721 5721 5722 5723 5724 5725 5726 5729 5732 5734 5734 5734 5736 5739 5740 5741 5742 5742 5743 5744 5745 5746 5746
5616 5619 5621 5624 5627 5629 5632 5634 5637 5640 5642 5645 5648 5650 5653 5656 5659 5662 5665 5668 5671 5674 5676 5679 5682 5684 5686 5689 5691 5693 5694 5696 5698 5700 5702 5703 5705 5706 5707 5708 5709 5711 5711 5712 5713 5714 5714 5715 5716 5716 5716 5716 5716 5717 5717 5717 5718 5719 5721 5722 5721 5720 5720 5720 5720 5720 5721 5721 5721 5722 5725 5728 5730 5730 5731 5733 5735 5737 5738 5739 5739 5740 5741 5741 5742 5742
5616 5619 5622 5625 5627 5630 5632 5634 5637 5639 5642 5644 5647 5649 5652 5655 5657 5660 5663 5666 5669 5672 5675 5677 5680 5682 5684 5686 5688 5690 5691 5693 5695 5697 5698 5700 5701 5702 5703 5704 5706 5706 5707 5708 5709 5710 5711 5711 5712 5713 5713 5713 5713 5714 5714 5714 5715 5715 5716 5717 5718 5718 5718 5719 5718 5718 5719 5719 5720 5721 5723 5725 5726 5727 5728 5730 5732 5733 5734 5735 5736 5736 5737 5737 5737 5738
5617 5619 5622 5624 5627 5630 5632 5634 5637 5639 5641 5643 5646 5648 5650 5653 5656 5658 5661 5664 5667 5670 5672 5675 5678 5680 5682 5684 5686 5687 5689 5690 5692 5693 5695 5696 5697 5698 5699 5701 5702 5703 5704 5705 5706 5706 5707 5708 5708 5709 5710 5710 5710 5711 5711 5711 5712 5711 5711 5712 5713 5714 5715 5716 5716 5716 5717 5718 5719 5720 5722 5723 5723 5723 5725 5727 5728 5729 5730 5731 5732 5732 5733 5733 5733 5733
5617 5619 5622 5624 5627 5629 5632 5634 5636 5639 5641 5642 5644 5647 5649 5651 5654 5657 5659 5662 5665 5668 5670 5673 5676 5677 5679 5681 5683 5684 5686 5687 5689 5690 5691 5692 5693 5694 5696 5697 5698 5699 5701 5701 5702 5702 5703 5704 5705 5705 5706 5707 5707 5708 5708 5709 5709 5708 5708 5708 5708 5709 5711 5713 5714 5715 5716 5717 5717 5719 5720 5720 5720 5720 5722 5723 5724 5725 5726 5727 5727 5728 5728 5729 5729 5729
5617 5619 5622 5624 5627 5629 5631 5633 5636 5638 5640 5641 5643 5646 5648 5650 5652 5655 5658 5660 5663 5666 5668 5671 5673 5675 5677 5678 5680 5681 5682 5684 5685 5687 5688 5689 5690 5691 5692 5693 5695 5696 5697 5697 5698 5698 5699 5700 5701 5702 5703 5703 5704 5705 5705 5706 5706 5705 5705 5705 5705 5705 5707 5709 5710 5712 5714 5715 5715 5716 5717 5717 5717 5717 5718 5719 5720 5721 5722 5722 5723 5723 5724 5724 5724 5724
5617 5619 5622 5624 5626 5629 5631 5633 5635 5637 5639 5641 5643 5645 5647 5649 5651 5653 5656 5658 5661 5663 5666 5668 5670 5672 5674 5675 5676 5677 5679 5681 5682 5683 5685 5686 5687 5688 5689 5690 5691 5692 5692 5693 5693 5693 5694 5695 5696 5697 5698 5699 5700 5701 5702 5702 5702 5702 5702 5702 5702 5702 5703 5704 5706 5708 5710 5711 5712 5713 5713 5714 5714 5715 5715 5716 5717 5717 5718 5718 5719 5719 5719 5720 5720 5719
5617 5619 5622 5624 5626 5628 5631 5633 5635 5637 5639 5641 5642 5644 5646 5648 5650 5652 5654 5656 5659 5661 5663 5665 5667 5668 5670 5672 5673 5674 5676 5677 5679 5680 5681 5682 5683 5684 5685 5686 5687 5687 5688 5688 5688 5689 5690 5691 5692 5693 5694 5695 5696 5697 5698 5699 5699 5699 5699 5699 5699 5699 5700 5701 5702 5704 5705 5707 5708 5709 5709 5710 5710 5711 5712 5713 5713 5714 5714 5714 5714 5715 5715 5715 5715 5714
5617 5619 5622 5624 5626 5628 5630 5633 5635 5637 5639 5640 5642 5643 5645 5647 5648 5650 5653 5655 5657 5659 5660 5662 5664 5665 5667 5669 5671 5672 5672 5673 5675 5676 5677 5678 5680 5681 5682 5682 5683 5683 5683 5684 5684 5685 5686 5687 5688 5689 5690 5691 5692 5694 5694 5695 5696 5696 5696 5697 5697 5697 5698 5698 5699 5700 5701 5702 5703 5704 5705 5706 5707 5708 5708 5709 5709 5710 5710 5710 5710 5711 5711 5711 5710 5710